AFP1 LPPR-LPPR

Flight info

Callsign AFP1
Flight time 0h 47m
Altitude 1500
Route LOCAL CIRCUITS
Aircraft F16/M-V/N

Departure

Time 2026-05-07 20:03
Airport Francisco de Sá Carneiro Airport (LPPR)

Arrival

Time 2026-05-07 20:50
Airport Francisco de Sá Carneiro Airport (LPPR)
Time Latitude Longitude Altitude Speed Heading
2026-05-07 19:49 41.23387 -8.67450 234 ft 0 kts 78°
2026-05-07 20:00 41.23370 -8.67367 234 ft 16 kts 165°
2026-05-07 20:00 41.23326 -8.67474 235 ft 14 kts 259°
2026-05-07 20:01 41.23311 -8.67580 234 ft 0 kts 258°
2026-05-07 20:01 41.23295 -8.67688 235 ft 10 kts 260°
2026-05-07 20:02 41.23292 -8.67711 236 ft 0 kts 260°
2026-05-07 20:02 41.23486 -8.67775 230 ft 75 kts 345°
2026-05-07 20:02 41.24276 -8.68001 210 ft 156 kts 349°
2026-05-07 20:03 41.25502 -8.68322 584 ft 172 kts 347°
2026-05-07 20:03 41.26774 -8.68513 619 ft 197 kts 352°
2026-05-07 20:03 41.28233 -8.68557 931 ft 232 kts 27°
2026-05-07 20:03 41.28977 -8.66998 920 ft 236 kts 110°
2026-05-07 20:04 41.27687 -8.65812 1153 ft 239 kts 163°
2026-05-07 20:04 41.26106 -8.65162 1212 ft 238 kts 163°
2026-05-07 20:04 41.24539 -8.64524 1294 ft 237 kts 163°
2026-05-07 20:04 41.22929 -8.63870 1361 ft 250 kts 163°
2026-05-07 20:05 41.21265 -8.63352 1246 ft 239 kts 223°
2026-05-07 20:05 41.20408 -8.65301 1002 ft 263 kts 266°
2026-05-07 20:05 41.21266 -8.67222 827 ft 276 kts 346°
2026-05-07 20:05 41.23114 -8.67762 805 ft 242 kts 348°
2026-05-07 20:06 41.24576 -8.68149 582 ft 191 kts 349°
2026-05-07 20:06 41.25785 -8.68364 426 ft 164 kts 352°
2026-05-07 20:06 41.27011 -8.68627 750 ft 191 kts 349°
2026-05-07 20:06 41.28337 -8.68970 812 ft 231 kts 347°
2026-05-07 20:07 41.30351 -8.69237 1130 ft 329 kts
2026-05-07 20:07 41.31945 -8.68052 1323 ft 237 kts 75°
2026-05-07 20:07 41.31404 -8.66311 1239 ft 204 kts 156°
2026-05-07 20:07 41.29976 -8.65706 1141 ft 205 kts 169°
2026-05-07 20:08 41.28501 -8.65354 1078 ft 247 kts 171°
2026-05-07 20:08 41.26796 -8.64998 1152 ft 246 kts 173°
2026-05-07 20:08 41.25114 -8.64753 1171 ft 247 kts 175°
2026-05-07 20:08 41.23398 -8.64589 1163 ft 247 kts 176°
2026-05-07 20:09 41.21679 -8.64453 1177 ft 246 kts 177°
2026-05-07 20:09 41.19962 -8.64402 1133 ft 248 kts 185°
2026-05-07 20:09 41.18274 -8.64508 1363 ft 244 kts 181°
2026-05-07 20:10 41.14845 -8.64116 1489 ft 248 kts 172°
2026-05-07 20:10 41.13135 -8.63859 1488 ft 243 kts 212°
2026-05-07 20:10 41.11443 -8.64176 1530 ft 251 kts 181°
2026-05-07 20:10 41.09728 -8.64129 992 ft 246 kts 166°
2026-05-07 20:11 41.08351 -8.62946 995 ft 238 kts 103°
2026-05-07 20:11 41.08830 -8.60992 1391 ft 250 kts 21°
2026-05-07 20:11 41.10509 -8.60802 1295 ft 241 kts 358°
2026-05-07 20:11 41.12198 -8.60841 1385 ft 243 kts 358°
2026-05-07 20:12 41.13895 -8.60962 1355 ft 246 kts 353°
2026-05-07 20:12 41.15577 -8.61214 1130 ft 243 kts 353°
2026-05-07 20:12 41.17246 -8.61444 1014 ft 239 kts 354°
2026-05-07 20:12 41.18605 -8.62497 1023 ft 244 kts 305°
2026-05-07 20:13 41.19455 -8.64446 798 ft 239 kts 300°
2026-05-07 20:13 41.20514 -8.66124 724 ft 236 kts 318°
2026-05-07 20:13 41.21905 -8.67316 626 ft 235 kts 342°
2026-05-07 20:13 41.23508 -8.67799 754 ft 240 kts 349°
2026-05-07 20:14 41.25138 -8.68215 767 ft 242 kts 347°
2026-05-07 20:14 41.26777 -8.68672 704 ft 239 kts 349°
2026-05-07 20:14 41.28395 -8.69125 937 ft 238 kts 348°
2026-05-07 20:14 41.30018 -8.68864 1184 ft 245 kts 34°
2026-05-07 20:15 41.30789 -8.66950 1090 ft 245 kts 107°
2026-05-07 20:15 41.29675 -8.65301 1612 ft 258 kts 147°
2026-05-07 20:15 41.28088 -8.64455 1468 ft 249 kts 168°
2026-05-07 20:15 41.26384 -8.64022 1366 ft 248 kts 170°
2026-05-07 20:16 41.24680 -8.63622 1267 ft 247 kts 170°
2026-05-07 20:16 41.22979 -8.63223 1173 ft 248 kts 170°
2026-05-07 20:16 41.21303 -8.62678 1096 ft 248 kts 162°
2026-05-07 20:16 41.19681 -8.61976 1126 ft 247 kts 162°
2026-05-07 20:17 41.18031 -8.61325 1197 ft 248 kts 166°
2026-05-07 20:17 41.16345 -8.60870 1283 ft 246 kts 172°
2026-05-07 20:17 41.15213 -8.60689 1352 ft 246 kts 175°
2026-05-07 20:17 41.13750 -8.60607 1454 ft 246 kts 181°
2026-05-07 20:18 41.12090 -8.61015 1481 ft 248 kts 218°
2026-05-07 20:18 41.11641 -8.62876 1219 ft 245 kts 340°
2026-05-07 20:18 41.13184 -8.63763 938 ft 239 kts 335°
2026-05-07 20:18 41.14744 -8.64535 843 ft 239 kts 341°
2026-05-07 20:19 41.16302 -8.65319 838 ft 237 kts 342°
2026-05-07 20:19 41.17907 -8.65925 803 ft 246 kts 342°
2026-05-07 20:19 41.19798 -8.66756 682 ft 296 kts 346°
2026-05-07 20:19 41.21796 -8.67320 608 ft 298 kts 348°
2026-05-07 20:20 41.23821 -8.67855 606 ft 302 kts 335°
2026-05-07 20:20 41.25872 -8.68423 620 ft 295 kts 350°
2026-05-07 20:20 41.27908 -8.68893 937 ft 298 kts 350°
2026-05-07 20:20 41.29971 -8.69020 1172 ft 303 kts 18°
2026-05-07 20:21 41.31463 -8.67209 979 ft 300 kts 78°
2026-05-07 20:21 41.30707 -8.64885 1641 ft 302 kts 159°
2026-05-07 20:21 41.28640 -8.64033 1578 ft 305 kts 165°
2026-05-07 20:21 41.26579 -8.63346 1415 ft 306 kts 167°
2026-05-07 20:22 41.24495 -8.62729 1356 ft 305 kts 169°
2026-05-07 20:22 41.22393 -8.62217 1303 ft 307 kts 171°
2026-05-07 20:22 41.20312 -8.61817 1259 ft 306 kts 173°
2026-05-07 20:22 41.18188 -8.61515 1275 ft 306 kts 175°
2026-05-07 20:23 41.16047 -8.61320 1238 ft 311 kts 177°
2026-05-07 20:23 41.13948 -8.61384 1304 ft 293 kts 200°
2026-05-07 20:23 41.13432 -8.62966 2353 ft 167 kts 357°
2026-05-07 20:23 41.14662 -8.63378 1295 ft 205 kts 345°
2026-05-07 20:24 41.15889 -8.63934 906 ft 174 kts 339°
2026-05-07 20:24 41.17099 -8.64599 724 ft 219 kts 332°
2026-05-07 20:24 41.18490 -8.65607 719 ft 229 kts 334°
2026-05-07 20:24 41.19917 -8.66498 515 ft 215 kts 333°
2026-05-07 20:25 41.20906 -8.67894 660 ft 230 kts 279°
2026-05-07 20:25 41.20221 -8.69639 673 ft 236 kts 192°
2026-05-07 20:25 41.19054 -8.68608 806 ft 240 kts 83°
2026-05-07 20:25 41.20111 -8.67291 687 ft 231 kts 356°
2026-05-07 20:26 41.21869 -8.67483 558 ft 299 kts 353°
2026-05-07 20:26 41.23914 -8.67910 314 ft 297 kts 349°
2026-05-07 20:26 41.25944 -8.68450 388 ft 295 kts 348°
2026-05-07 20:26 41.27925 -8.68979 575 ft 279 kts 348°
2026-05-07 20:27 41.29612 -8.69429 643 ft 235 kts 349°
2026-05-07 20:27 41.30841 -8.68430 489 ft 249 kts 97°
2026-05-07 20:27 41.29768 -8.66871 560 ft 247 kts 168°
2026-05-07 20:27 41.28076 -8.66374 629 ft 245 kts 168°
2026-05-07 20:28 41.26416 -8.65908 744 ft 246 kts 168°
2026-05-07 20:28 41.24647 -8.65417 922 ft 297 kts 168°
2026-05-07 20:28 41.22574 -8.64841 1278 ft 301 kts 168°
2026-05-07 20:28 41.20502 -8.64192 1403 ft 306 kts 164°
2026-05-07 20:29 41.18446 -8.63432 1396 ft 310 kts 165°
2026-05-07 20:29 41.16439 -8.62580 1216 ft 304 kts 159°
2026-05-07 20:29 41.14440 -8.61574 1368 ft 305 kts 159°
2026-05-07 20:29 41.12419 -8.60815 1483 ft 296 kts 198°
2026-05-07 20:30 41.12984 -8.62343 2505 ft 281 kts 340°
2026-05-07 20:30 41.14527 -8.63315 2341 ft 226 kts 327°
2026-05-07 20:30 41.15769 -8.64412 1530 ft 201 kts 321°
2026-05-07 20:30 41.16682 -8.65712 1054 ft 211 kts 297°
2026-05-07 20:31 41.16618 -8.67567 1166 ft 216 kts 219°
2026-05-07 20:31 41.15717 -8.67644 1094 ft 224 kts 121°
2026-05-07 20:31 41.16307 -8.65354 927 ft 208 kts 38°
2026-05-07 20:31 41.17201 -8.64952 1278 ft 212 kts 345°
2026-05-07 20:32 41.18580 -8.65699 932 ft 212 kts 335°
2026-05-07 20:32 41.19936 -8.66475 682 ft 209 kts 338°
2026-05-07 20:32 41.21493 -8.67153 603 ft 248 kts 346°
2026-05-07 20:32 41.23152 -8.67676 564 ft 249 kts 348°
2026-05-07 20:33 41.24851 -8.68123 487 ft 248 kts 348°
2026-05-07 20:33 41.26532 -8.68569 470 ft 246 kts 349°
2026-05-07 20:33 41.28228 -8.69001 623 ft 248 kts 351°
2026-05-07 20:33 41.29938 -8.68996 985 ft 249 kts 15°
2026-05-07 20:34 41.30925 -8.67322 1035 ft 259 kts 102°
2026-05-07 20:34 41.30188 -8.65170 948 ft 255 kts 120°
2026-05-07 20:34 41.29049 -8.63359 1117 ft 256 kts 147°
2026-05-07 20:34 41.27415 -8.62381 1118 ft 258 kts 165°
2026-05-07 20:35 41.25712 -8.61798 1282 ft 256 kts 167°
2026-05-07 20:35 41.23968 -8.61257 1303 ft 255 kts 167°
2026-05-07 20:35 41.22218 -8.60726 1348 ft 257 kts 167°
2026-05-07 20:35 41.20481 -8.60203 1414 ft 255 kts 167°
2026-05-07 20:36 41.18887 -8.59722 1411 ft 207 kts 167°
2026-05-07 20:36 41.17527 -8.59253 1296 ft 189 kts 161°
2026-05-07 20:36 41.16299 -8.58716 1334 ft 188 kts 162°
2026-05-07 20:36 41.15060 -8.58186 1417 ft 186 kts 162°
2026-05-07 20:37 41.13829 -8.57658 1589 ft 184 kts 162°
2026-05-07 20:37 41.12581 -8.57158 1580 ft 188 kts 172°
2026-05-07 20:37 41.11286 -8.57145 1361 ft 189 kts 178°
2026-05-07 20:37 41.09991 -8.57085 1420 ft 184 kts 180°
2026-05-07 20:38 41.08760 -8.57485 1351 ft 190 kts 230°
2026-05-07 20:38 41.08514 -8.59075 1076 ft 186 kts 295°
2026-05-07 20:38 41.08909 -8.60678 1033 ft 181 kts 268°
2026-05-07 20:38 41.08483 -8.62179 1335 ft 183 kts 217°
2026-05-07 20:39 41.07305 -8.62411 1570 ft 190 kts 124°
2026-05-07 20:39 41.07583 -8.61022 1280 ft 189 kts 358°
2026-05-07 20:39 41.08924 -8.61640 1171 ft 267 kts 332°
2026-05-07 20:39 41.11161 -8.63064 1016 ft 453 kts 335°
2026-05-07 20:40 41.14668 -8.64994 933 ft 603 kts 340°
2026-05-07 20:40 41.18828 -8.66617 871 ft 649 kts 348°
2026-05-07 20:40 41.23272 -8.67711 540 ft 648 kts 348°
2026-05-07 20:40 41.27690 -8.68856 733 ft 636 kts 349°
2026-05-07 20:41 41.31571 -8.69637 1491 ft 489 kts 12°
2026-05-07 20:41 41.32140 -8.67304 1478 ft 275 kts 172°
2026-05-07 20:41 41.30443 -8.66696 1425 ft 245 kts 169°
2026-05-07 20:41 41.28766 -8.66312 1352 ft 246 kts 171°
2026-05-07 20:42 41.27089 -8.65939 1280 ft 245 kts 171°
2026-05-07 20:42 41.25402 -8.65564 1175 ft 245 kts 171°
2026-05-07 20:42 41.23731 -8.65089 1080 ft 246 kts 167°
2026-05-07 20:42 41.22065 -8.64587 998 ft 246 kts 167°
2026-05-07 20:43 41.20388 -8.64086 926 ft 246 kts 168°
2026-05-07 20:43 41.18964 -8.63050 1183 ft 245 kts 122°
2026-05-07 20:43 41.18887 -8.61084 970 ft 214 kts 42°
2026-05-07 20:43 41.20229 -8.60902 1102 ft 217 kts 317°
2026-05-07 20:44 41.20382 -8.62668 674 ft 214 kts 220°
2026-05-07 20:44 41.19076 -8.62571 867 ft 219 kts 119°
2026-05-07 20:44 41.19394 -8.60910 962 ft 216 kts 12°
2026-05-07 20:44 41.20433 -8.61868 969 ft 218 kts 259°
2026-05-07 20:45 41.19345 -8.62824 823 ft 216 kts 146°
2026-05-07 20:45 41.19203 -8.61185 1023 ft 216 kts 28°
2026-05-07 20:45 41.20409 -8.61782 913 ft 218 kts 283°
2026-05-07 20:45 41.19702 -8.63156 804 ft 220 kts 162°
2026-05-07 20:46 41.19336 -8.61612 979 ft 211 kts 35°
2026-05-07 20:46 41.20544 -8.62041 940 ft 217 kts 265°
2026-05-07 20:46 41.19559 -8.62380 1102 ft 220 kts 95°
2026-05-07 20:46 41.20418 -8.62017 1412 ft 222 kts 259°
2026-05-07 20:47 41.19408 -8.62201 1146 ft 230 kts 83°
2026-05-07 20:47 41.20407 -8.61831 1103 ft 225 kts 275°
2026-05-07 20:47 41.19751 -8.63535 1303 ft 221 kts 223°
2026-05-07 20:47 41.18526 -8.64737 1179 ft 219 kts 195°
2026-05-07 20:48 41.17132 -8.64143 777 ft 214 kts 161°
2026-05-07 20:48 41.16760 -8.65143 923 ft 213 kts 330°
2026-05-07 20:48 41.18099 -8.66018 965 ft 186 kts 334°
2026-05-07 20:48 41.19127 -8.66719 672 ft 155 kts 349°
2026-05-07 20:49 41.20174 -8.66961 720 ft 149 kts 349°
2026-05-07 20:49 41.21164 -8.67190 689 ft 146 kts 351°
2026-05-07 20:49 41.22146 -8.67447 546 ft 142 kts 350°
2026-05-07 20:49 41.23137 -8.67689 311 ft 143 kts 350°
2026-05-07 20:50 41.24100 -8.67941 213 ft 138 kts 348°
2026-05-07 20:50 41.24754 -8.68108 194 ft 66 kts 353°
2026-05-07 20:50 41.25174 -8.68150 177 ft 57 kts 15°
2026-05-07 20:50 41.25275 -8.68014 174 ft 18 kts 161°
2026-05-07 20:51 41.25167 -8.67985 180 ft 14 kts 173°
2026-05-07 20:51 41.25078 -8.67965 182 ft 12 kts 167°
2026-05-07 20:51 41.24974 -8.67940 186 ft 17 kts 170°
2026-05-07 20:51 41.24866 -8.67896 187 ft 16 kts 150°
2026-05-07 20:52 41.24791 -8.67845 196 ft 8 kts 159°
2026-05-07 20:52 41.24722 -8.67815 207 ft 10 kts 165°
2026-05-07 20:52 41.24674 -8.67797 206 ft 4 kts 162°
2026-05-07 20:52 41.24604 -8.67771 210 ft 31 kts 165°
2026-05-07 20:53 41.24406 -8.67733 218 ft 28 kts 166°
2026-05-07 20:53 41.24227 -8.67609 232 ft 20 kts 162°
2026-05-07 20:53 41.24192 -8.67682 234 ft 9 kts 260°
2026-05-07 20:53 41.24191 -8.67686 234 ft 0 kts 260°